{"data":{"norad_id":62024,"intl_designator":"2024-213S","name":"STARLINK-32504","alt_names":[],"object_type":"PAYLOAD","status":"ACTIVE","operator":null,"country":"US","launch_date":"2024-11-18","launch_site_code":"AFWTR","launch_vehicle":null,"mission":null,"orbit_class":"UNKNOWN","rcs_meters":null,"size_class":null,"mass_kg":null,"dimensions":null,"purposes":["comms"],"wikipedia_slug":null,"has_3d_model":false,"image_url":null,"decayed_at":null,"tle_current":{"epoch":"2026-05-24T13:37:40.429056Z","epoch_age_seconds":108504,"freshness":"FRESH","line1":"1 62024U 24213S   26144.56782904  .00022340  00000+0  76426-3 0  9992","line2":"2 62024  53.1579 175.5737 0001104  84.1502 275.9625 15.30194580 84775","mean_motion":15.3019458,"eccentricity":0.0001104,"inclination_deg":53.1579,"raan_deg":175.5737,"arg_perigee_deg":84.1502,"mean_anomaly_deg":275.9625,"bstar":0.00076426,"rev_number":8477,"period_min":94.105679030702,"perigee_km":474.47464075504,"apogee_km":475.98786446522,"semimajor_km":6853.3682526101,"source":"CELESTRAK","updated_at":"2026-05-25T13:38:19.522295Z"}}}